Regional Weather Roundup
Issued by NWS Sterling, VA

Home | Current Version | Previous Version | Text Only | Print | Product List | Glossary Off
Versions: 1 2 3 4 5 6 7 8 9 10 11 12 13 14 15 16 17 18 19 20 21 22 23 24 25 26 27 28 29 30 31 32 33 34 35 36 37 38 39 40 41 42 43 44 45 46 47 48 49

000
ASUS41 KLWX 041110
RWRLWX

REGIONAL WEATHER ROUNDUP
NATIONAL WEATHER SERVICE BALTIMORE MD/WASHINGTON DC
700 AM EDT SAT JUL 04 2015

Note: "FAIR" indicates few or no clouds below 12,000 feet
with no significant weather and/or obstructions to visibility.
 TC=TEMPERATURE CELSIUS

 * =Non NWS site. Station does not report precipitation (e.g. rain,
    snow, etc.), thunder, or fog.

DCZ001-MDZ009-015-VAZ040>042-051-053>054-041200-
WASHINGTON METRO

CITY           SKY/WX    TMP DP  RH WIND       PRES   REMARKS
WASHINGTON NAT PTSUNNY   74  68  81 NE3       29.89S
DULLES         CLOUDY    69  67  93 CALM      29.89S
ANDREWS AFB    MOSUNNY   70  69  99 E5        29.88S
FT BELVOIR     PTSUNNY   70  68  93 CALM      29.88S
QUANTICO       CLOUDY    71  66  84 CALM      29.89S
LEESBURG*      LGT RAIN  68  68 100 NW3       29.91S
MANASSAS*      CLOUDY    70  70 100 CALM        N/A  FOG
GAITHERSBURG*  CLOUDY    68  64  88 CALM      29.94S

$$

MDZ006>007-011-014-041200-
BALTIMORE METRO

CITY           SKY/WX    TMP DP  RH WIND       PRES   REMARKS
BWI AIRPORT    PTSUNNY   71  67  87 E5        29.89S
MD SCIENCE CTR   N/A     72  67  84 MISG      29.90S
MARTIN STATE   PTSUNNY   72  70  94 CALM      29.90F
ANNAPOLIS      PTSUNNY   72  67  84 CALM      29.88S
FORT MEADE*    PTSUNNY   68  66  94 CALM      29.91F

$$

MDZ012-015-019>023-041200-
MARYLAND EASTERN SHORE

CITY           SKY/WX    TMP DP  RH WIND       PRES   REMARKS
OCEAN CITY     CLOUDY    73  70  90 E9        29.83F FOG
SALISBURY      MOSUNNY   71  69  93 NE7       29.84S
BAY BRIDGE AP*   N/A     72  66  83 E5        29.88S
EASTON*        PTSUNNY   72  72 100 NE6       29.90F FOG

$$

MDZ017>025-041200-
SOUTHERN MARYLAND

CITY           SKY/WX    TMP DP  RH WIND       PRES   REMARKS
PATUXENT RIVER CLOUDY    73  69  87 N5        29.86R
ST INIGOES     CLOUDY    74  70  87 N5        29.85R
LEONARDTOWN*   MOSUNNY   68  66  94 CALM      29.88S

$$

MDZ003>005-041200-
NORTH CENTRAL MARYLAND

CITY           SKY/WX    TMP DP  RH WIND       PRES   REMARKS
FREDERICK*     CLOUDY    66  66 100 CALM      29.93R FOG
HAGERSTOWN APT LGT RAIN  66  63  90 CALM      29.90S FOG
WESTMINSTER*   LGT RAIN  68  66  94 SE3       29.91S

$$

MDZ501>502-041200-
WESTERN MARYLAND

CITY           SKY/WX    TMP DP  RH WIND       PRES   REMARKS
OAKLAND*       FOG       61 N/A N/A SW6       29.95R VSB 3/4
CUMBERLAND*    CLOUDY    66  66 100 CALM      29.92S

$$

VAZ025>031-041200-
SHENANDOAH VALLEY

CITY           SKY/WX    TMP DP  RH WIND       PRES   REMARKS
WINCHESTER*    CLOUDY    68  68 100 SE3       29.90S FOG
FRONT ROYAL*   CLOUDY    64  64 100 S3        29.90R
LURAY*         CLOUDY    68  68 100 CALM      29.91S FOG
NEW MARKET*    CLOUDY    66  66  99 CALM      29.90S
STAUNTON*      CLOUDY    68  67  95 CALM      29.95R FOG
WAYNESBORO*    CLOUDY    65  65 100 CALM      29.94S

$$

WVZ021-048>050-054>055-041200-
EASTERN WEST VIRGINIA PANHANDLE

CITY           SKY/WX    TMP DP  RH WIND       PRES   REMARKS
MARTINSBURG    CLOUDY    67  65  93 CALM      29.90S FOG
PETERSBURG*    CLOUDY    66  64  91 CALM      29.91S FOG

$$

VAZ036>039-050-041200-
CENTRAL FOOTHILLS

CITY           SKY/WX    TMP DP  RH WIND       PRES   REMARKS
CHARLOTTESVILL CLOUDY    68  66  93 CALM      29.91R FOG
CULPEPER*      RAIN      67  67  98 CALM      29.91S
ORANGE*        CLOUDY    70  68  94 CALM      29.92S FOG
GORDONSVILLE*  CLOUDY    68  66  94 CALM      29.90S FOG
WARRENTON*     DRIZZLE   69  69  99 CALM      29.89S

$$

VAZ055>057-041200-
NORTH AND CENTRAL PIEDMONT

CITY           SKY/WX    TMP DP  RH WIND       PRES   REMARKS
FREDERICKSBRG* CLOUDY    72  72 100 CALM      29.88S
STAFFORD*      CLOUDY    68  66  94 CALM      29.93S FOG

$$

NCZ024-NYZ072-PAZ021-071-VAZ022-071-041200-
OTHER REGIONAL OBSERVATIONS

CITY           SKY/WX    TMP DP  RH WIND       PRES   REMARKS
NEW YORK CITY  CLOUDY    71  58  63 CALM      29.98R
PHILADELPHIA   CLOUDY    70  66  87 E7        29.91F
PITTSBURGH     CLOUDY    66  64  93 N3        29.89R FOG
ROANOKE        CLOUDY    67  67 100 S3        29.96S FOG
RICHMOND       CLOUDY    71  69  93 W7        29.89R FOG
RALEIGH        PTCLDY    71  69  93 SW9       29.95R

$$

ANZ530>537-041200-
MARINE OBSERVATIONS

STATION/POSITION TIME  TEMP    WIND        PRES
                       AIR SEA DIR/SP/G
                 (UTC) (F)     (DEG/KT/KT) (MB)
THOMAS PT LIGHT  1000          100/  9       N/A
BALT KEY BRIDGE  1000   72      60/  4/  5 1012.1R
COVE POINT       1000   71      70/  9/ 10 1011.8R
LEWISETTA        1000   75 79   70/  8/ 11 1010.3R
SOLOMONS ISLAND  1000      79                N/A
PINEY POINT      1000           50/  4/  5   N/A

$$



USA.gov is the U.S. government's official web portal to all federal, state and local government web resources and services.